| time (UTC) | temp C | wind direction | speed KPH | gust KPH | rain 1hr cm | rain 24hr cm | rain mn cm | humidity % | barometer mb |
| 20260906083745 | 16 | 162 | 3.2 | 12.9 | 0.00 | 0.00 | 0.00 | 7 | 1020.7 |
| 20260906082745 | 16 | 175 | 12.9 | 16.1 | 0.00 | 0.00 | 0.00 | 7 | 1020.8 |
| 20260906081744 | 16 | 122 | 4.8 | 6.4 | 0.00 | 0.00 | 0.00 | 7 | 1020.6 |
| 20260906080744 | 16 | 175 | 3.2 | 14.5 | 0.00 | 0.00 | 0.00 | 7 | 1020.4 |
| 20260906075743 | 16 | 143 | 16.1 | 22.5 | 0.00 | 0.00 | 0.00 | 7 | 1020.2 |
| 20260906074743 | 16 | 113 | 3.2 | 20.9 | 0.00 | 0.00 | 0.00 | 7 | 1020.0 |
| 20260906073743 | 17 | 130 | 3.2 | 9.7 | 0.00 | 0.00 | 0.00 | 7 | 1019.8 |
| 20260906072743 | 17 | 122 | 16.1 | 24.1 | 0.00 | 0.00 | 0.00 | 7 | 1019.6 |
| 20260906071743 | 17 | 168 | 9.7 | 17.7 | 0.00 | 0.00 | 0.00 | 6 | 1019.5 |
| 20260906070743 | 17 | 131 | 4.8 | 12.9 | 0.00 | 0.00 | 0.00 | 6 | 1019.2 |
| 20260906065743 | 17 | 151 | 1.6 | 8.0 | 0.00 | 0.00 | 0.00 | 6 | 1019.1 |
| 20260906064743 | 17 | 115 | 3.2 | 14.5 | 0.00 | 0.00 | 0.00 | 6 | 1019.0 |
| 20260906063743 | 17 | 143 | 9.7 | 17.7 | 0.00 | 0.00 | 0.00 | 6 | 1018.9 |
| 20260906062743 | 17 | 133 | 6.4 | 14.5 | 0.00 | 0.00 | 0.00 | 6 | 1018.7 |
| 20260906061743 | 17 | 168 | 12.9 | 20.9 | 0.00 | 0.00 | 0.00 | 6 | 1018.6 |
| 20260906060743 | 18 | 162 | 4.8 | 17.7 | 0.00 | 0.00 | 0.00 | 6 | 1018.6 |
| 20260906055743 | 18 | 141 | 4.8 | 17.7 | 0.00 | 0.00 | 0.00 | 6 | 1018.5 |
| 20260906054743 | 18 | 160 | 3.2 | 25.7 | 0.00 | 0.00 | 0.00 | 5 | 1018.3 |
| 20260906053743 | 18 | 175 | 4.8 | 16.1 | 0.00 | 0.00 | 0.00 | 5 | 1017.9 |
| 20260906052743 | 19 | 139 | 4.8 | 16.1 | 0.00 | 0.00 | 0.00 | 5 | 1018.0 |
| 20260906051743 | 19 | 116 | 8.0 | 14.5 | 0.00 | 0.00 | 0.00 | 5 | 1017.9 |
| 20260906050743 | 20 | 137 | 9.7 | 12.9 | 0.00 | 0.00 | 0.00 | 5 | 1017.6 |
| 20260906045743 | 20 | 131 | 12.9 | 14.5 | 0.00 | 0.00 | 0.00 | 5 | 1017.5 |
| 20260906044743 | 20 | 108 | 11.3 | 14.5 | 0.00 | 0.00 | 0.00 | 5 | 1017.4 |
| 20260906043743 | 20 | 202 | 3.2 | 12.9 | 0.00 | 0.00 | 0.00 | 5 | 1017.3 |
| 20260906042743 | 20 | 102 | 9.7 | 17.7 | 0.00 | 0.00 | 0.00 | 5 | 1017.3 |
| 20260906041743 | 20 | 101 | 6.4 | 19.3 | 0.00 | 0.00 | 0.00 | 4 | 1017.2 |
| 20260906040742 | 20 | 89 | 11.3 | 14.5 | 0.00 | 0.00 | 0.00 | 5 | 1017.2 |
| 20260906035742 | 20 | 185 | 4.8 | 16.1 | 0.00 | 0.00 | 0.00 | 4 | 1017.1 |
| 20260906034742 | 20 | 86 | 6.4 | 20.9 | 0.00 | 0.00 | 0.00 | 4 | 1017.2 |
| 20260906033742 | 21 | 175 | 9.7 | 9.7 | 0.00 | 0.00 | 0.00 | 4 | 1017.0 |
| 20260906032742 | 21 | 175 | 4.8 | 12.9 | 0.00 | 0.00 | 0.00 | 4 | 1017.0 |
| 20260906031742 | 20 | 108 | 4.8 | 12.9 | 0.00 | 0.00 | 0.00 | 4 | 1016.9 |
| 20260906030742 | 20 | 193 | 6.4 | 17.7 | 0.00 | 0.00 | 0.00 | 4 | 1016.9 |
| 20260906025742 | 21 | 197 | 12.9 | 19.3 | 0.00 | 0.00 | 0.00 | 4 | 1016.6 |
| 20260906024742 | 21 | 210 | 9.7 | 14.5 | 0.00 | 0.00 | 0.00 | 4 | 1016.8 |
| 20260906023742 | 21 | 287 | 12.9 | 16.1 | 0.00 | 0.00 | 0.00 | 4 | 1016.8 |
| 20260906022742 | 20 | 215 | 16.1 | 25.7 | 0.00 | 0.00 | 0.00 | 4 | 1016.8 |
| 20260906021742 | 20 | 225 | 8.0 | 14.5 | 0.00 | 0.00 | 0.00 | 4 | 1016.8 |
| 20260906020742 | 20 | 153 | 14.5 | 14.5 | 0.00 | 0.00 | 0.00 | 4 | 1016.9 |
| 20260906015742 | 20 | 220 | 14.5 | 20.9 | 0.00 | 0.00 | 0.00 | 4 | 1016.8 |
| 20260906014742 | 20 | 212 | 16.1 | 27.4 | 0.00 | 0.00 | 0.00 | 4 | 1016.8 |
| 20260906013742 | 20 | 209 | 6.4 | 24.1 | 0.00 | 0.00 | 0.00 | 4 | 1016.9 |
| 20260906012741 | 20 | 193 | 6.4 | 17.7 | 0.00 | 0.00 | 0.00 | 4 | 1017.1 |
| 20260906011741 | 20 | 249 | 8.0 | 16.1 | 0.00 | 0.00 | 0.00 | 4 | 1017.0 |
| 20260906010741 | 19 | 190 | 8.0 | 24.1 | 0.00 | 0.00 | 0.00 | 4 | 1017.0 |
| 20260906005741 | 19 | 242 | 3.2 | 17.7 | 0.00 | 0.00 | 0.00 | 4 | 1017.0 |
| 20260906004741 | 19 | 199 | 4.8 | 24.1 | 0.00 | 0.00 | 0.00 | 4 | 1016.8 |
| 20260906003741 | 19 | 230 | 20.9 | 29.0 | 0.00 | 0.00 | 0.00 | 4 | 1016.7 |
| 20260906002741 | 18 | 233 | 6.4 | 8.0 | 0.00 | 0.00 | 0.00 | 4 | 1016.8 |
| 20260906001741 | 18 | 213 | 16.1 | 22.5 | 0.00 | 0.00 | 0.00 | 4 | 1016.7 |
| 20260906000741 | 18 | 224 | 4.8 | 19.3 | 0.00 | 0.00 | 0.00 | 4 | 1016.6 |
| 20260905235741 | 18 | 249 | 8.0 | 27.4 | 0.00 | 0.00 | 0.00 | 4 | 1016.3 |
| 20260905234740 | 17 | 214 | 8.0 | 17.7 | 0.00 | 0.00 | 0.00 | 5 | 1016.3 |
| 20260905233740 | 17 | 228 | 6.4 | 29.0 | 0.00 | 0.00 | 0.00 | 4 | 1016.3 |
| 20260905232740 | 17 | 214 | 12.9 | 24.1 | 0.00 | 0.00 | 0.00 | 5 | 1016.2 |
| 20260905231740 | 17 | 201 | 8.0 | 22.5 | 0.00 | 0.00 | 0.00 | 5 | 1016.2 |
| 20260905230740 | 17 | 266 | 12.9 | 27.4 | 0.00 | 0.00 | 0.00 | 5 | 1016.2 |
| 20260905225740 | 16 | 263 | 20.9 | 27.4 | 0.00 | 0.00 | 0.00 | 5 | 1016.1 |
| 20260905224740 | 16 | 210 | 16.1 | 33.8 | 0.00 | 0.00 | 0.00 | 5 | 1015.9 |
| 20260905223740 | 16 | 254 | 11.3 | 25.7 | 0.00 | 0.00 | 0.00 | 5 | 1016.0 |
| 20260905222740 | 16 | 244 | 14.5 | 37.0 | 0.00 | 0.00 | 0.00 | 5 | 1016.1 |
| 20260905221740 | 16 | 256 | 27.4 | 30.6 | 0.00 | 0.00 | 0.00 | 5 | 1016.0 |
| 20260905220740 | 16 | 203 | 12.9 | 17.7 | 0.00 | 0.00 | 0.00 | 5 | 1015.9 |
| 20260905215740 | 16 | 202 | 12.9 | 22.5 | 0.00 | 0.00 | 0.00 | 5 | 1015.6 |
| 20260905214740 | 15 | 254 | 16.1 | 25.7 | 0.00 | 0.00 | 0.00 | 5 | 1015.4 |
| 20260905213740 | 15 | 222 | 6.4 | 24.1 | 0.00 | 0.00 | 0.00 | 5 | 1015.2 |
| 20260905212740 | 15 | 285 | 4.8 | 14.5 | 0.00 | 0.00 | 0.00 | 5 | 1015.2 |
| 20260905211740 | 15 | 296 | 3.2 | 6.4 | 0.00 | 0.00 | 0.00 | 5 | 1015.1 |
| 20260905210740 | 15 | 0 | 0.0 | 4.8 | 0.00 | 0.00 | 0.00 | 5 | 1015.2 |
| 20260905205740 | 14 | 293 | 1.6 | 3.2 | 0.00 | 0.00 | 0.00 | 5 | 1014.7 |
| 20260905204739 | 13 | 0 | 0.0 | 0.0 | 0.00 | 0.00 | 0.00 | 5 | 1014.7 |
| 20260905203739 | 13 | 0 | 0.0 | 4.8 | 0.00 | 0.00 | 0.00 | 5 | 1014.3 |
| 20260905202739 | 13 | 0 | 0.0 | 0.0 | 0.00 | 0.00 | 0.00 | 5 | 1014.3 |
| 20260905201739 | 13 | 0 | 0.0 | 3.2 | 0.00 | 0.00 | 0.00 | 5 | 1013.9 |
| 20260905200739 | 13 | 324 | 1.6 | 9.7 | 0.00 | 0.00 | 0.00 | 5 | 1013.6 |
| 20260905195739 | 13 | 0 | 0.0 | 3.2 | 0.00 | 0.00 | 0.00 | 5 | 1013.6 |
| 20260905194739 | 13 | 289 | 3.2 | 4.8 | 0.00 | 0.00 | 0.00 | 5 | 1013.6 |
| 20260905193739 | 13 | 291 | 4.8 | 6.4 | 0.00 | 0.00 | 0.00 | 5 | 1013.6 |
| 20260905192739 | 13 | 290 | 4.8 | 11.3 | 0.00 | 0.00 | 0.00 | 5 | 1013.0 |
| 20260905191739 | 13 | 268 | 1.6 | 6.4 | 0.00 | 0.00 | 0.00 | 5 | 1013.3 |
| 20260905190739 | 14 | 279 | 4.8 | 9.7 | 0.00 | 0.00 | 0.00 | 5 | 1012.8 |
| 20260905185739 | 15 | 284 | 3.2 | 9.7 | 0.00 | 0.00 | 0.00 | 5 | 1012.7 |
| 20260905184739 | 15 | 287 | 1.6 | 4.8 | 0.00 | 0.00 | 0.00 | 5 | 1012.6 |
| 20260905183739 | 15 | 280 | 4.8 | 12.9 | 0.00 | 0.00 | 0.00 | 5 | 1012.4 |
| 20260905182739 | 15 | 0 | 0.0 | 6.4 | 0.00 | 0.00 | 0.00 | 5 | 1012.2 |
| 20260905181739 | 16 | 268 | 4.8 | 8.0 | 0.00 | 0.00 | 0.00 | 5 | 1011.8 |
| 20260905180739 | 16 | 251 | 9.7 | 16.1 | 0.00 | 0.00 | 0.00 | 5 | 1011.3 |
| 20260905175739 | 16 | 291 | 1.6 | 17.7 | 0.00 | 0.00 | 0.00 | 5 | 1010.9 |
| 20260905174739 | 16 | 305 | 8.0 | 14.5 | 0.00 | 0.00 | 0.00 | 5 | 1010.8 |
| 20260905173739 | 16 | 223 | 8.0 | 17.7 | 0.00 | 0.00 | 0.00 | 5 | 1010.9 |
| 20260905172739 | 16 | 268 | 3.2 | 12.9 | 0.00 | 0.00 | 0.00 | 5 | 1011.1 |
| 20260905171738 | 17 | 260 | 1.6 | 6.4 | 0.00 | 0.00 | 0.00 | 5 | 1011.0 |
| 20260905170738 | 17 | 289 | 3.2 | 9.7 | 0.00 | 0.00 | 0.00 | 4 | 1011.2 |
| 20260905165738 | 17 | 249 | 1.6 | 4.8 | 0.00 | 0.00 | 0.00 | 4 | 1011.2 |
| 20260905164738 | 18 | 235 | 9.7 | 29.0 | 0.00 | 0.00 | 0.00 | 4 | 1011.3 |
| 20260905163737 | 18 | 231 | 8.0 | 16.1 | 0.00 | 0.00 | 0.00 | 4 | 1011.4 |
| 20260905162737 | 18 | 231 | 8.0 | 17.7 | 0.00 | 0.00 | 0.00 | 4 | 1011.3 |
| 20260905161737 | 18 | 231 | 4.8 | 17.7 | 0.00 | 0.00 | 0.00 | 5 | 1011.2 |
| 20260905160736 | 18 | 202 | 8.0 | 29.0 | 0.00 | 0.00 | 0.00 | 5 | 1011.3 |
| 20260905155736 | 18 | 226 | 4.8 | 19.3 | 0.00 | 0.00 | 0.00 | 5 | 1011.4 |
| 20260905154736 | 19 | 243 | 6.4 | 12.9 | 0.00 | 0.00 | 0.00 | 5 | 1011.5 |
| 20260905153736 | 20 | 258 | 6.4 | 19.3 | 0.00 | 0.00 | 0.00 | 5 | 1011.4 |
| 20260905152736 | 20 | 260 | 19.3 | 19.3 | 0.00 | 0.00 | 0.00 | 5 | 1010.8 |
| 20260905151736 | 20 | 245 | 1.6 | 12.9 | 0.00 | 0.00 | 0.00 | 5 | 1010.7 |
| 20260905150736 | 19 | 262 | 6.4 | 24.1 | 0.00 | 0.00 | 0.00 | 5 | 1010.4 |
| 20260905145736 | 18 | 259 | 6.4 | 8.0 | 0.00 | 0.00 | 0.00 | 6 | 1010.3 |
| 20260905144736 | 18 | 257 | 1.6 | 6.4 | 0.00 | 0.00 | 0.00 | 6 | 1010.2 |
| 20260905143736 | 18 | 216 | 4.8 | 9.7 | 0.00 | 0.00 | 0.00 | 6 | 1010.1 |
| 20260905142736 | 19 | 208 | 3.2 | 8.0 | 0.00 | 0.00 | 0.00 | 6 | 1010.1 |
| 20260905141736 | 19 | 228 | 4.8 | 6.4 | 0.00 | 0.00 | 0.00 | 6 | 1010.0 |
| 20260905140736 | 20 | 248 | 3.2 | 8.0 | 0.00 | 0.00 | 0.00 | 6 | 1009.9 |
| 20260905135736 | 20 | 237 | 3.2 | 6.4 | 0.00 | 0.00 | 0.00 | 5 | 1009.8 |
| 20260905134736 | 20 | 261 | 6.4 | 14.5 | 0.00 | 0.00 | 0.00 | 5 | 1009.6 |
| 20260905133736 | 20 | 228 | 8.0 | 14.5 | 0.00 | 0.00 | 0.00 | 5 | 1009.4 |
| 20260905132736 | 19 | 0 | 0.0 | 12.9 | 0.00 | 0.00 | 0.00 | 6 | 1009.2 |
| 20260905131736 | 18 | 299 | 6.4 | 9.7 | 0.00 | 0.00 | 0.00 | 6 | 1009.3 |
| 20260905130736 | 18 | 254 | 4.8 | 8.0 | 0.00 | 0.00 | 0.00 | 6 | 1009.2 |
| 20260905125736 | 18 | 202 | 4.8 | 4.8 | 0.00 | 0.00 | 0.00 | 6 | 1009.0 |
| 20260905124736 | 18 | 202 | 1.6 | 3.2 | 0.00 | 0.00 | 0.00 | 6 | 1008.8 |
| 20260905123736 | 18 | 0 | 0.0 | 3.2 | 0.00 | 0.00 | 0.00 | 6 | 1008.8 |
| 20260905122736 | 19 | 202 | 1.6 | 4.8 | 0.00 | 0.00 | 0.00 | 6 | 1008.9 |
| 20260905121736 | 18 | 201 | 1.6 | 3.2 | 0.00 | 0.00 | 0.00 | 6 | 1008.8 |
| 20260905120736 | 18 | 0 | 0.0 | 0.0 | 0.00 | 0.00 | 0.00 | 6 | 1008.9 |
| 20260905115736 | 19 | 0 | 0.0 | 3.2 | 0.00 | 0.00 | 0.00 | 6 | 1008.9 |
| 20260905114736 | 19 | 0 | 0.0 | 0.0 | 0.00 | 0.00 | 0.00 | 6 | 1009.0 |
| 20260905113736 | 20 | 0 | 0.0 | 3.2 | 0.00 | 0.00 | 0.00 | 6 | 1009.1 |
| 20260905112736 | 20 | 0 | 0.0 | 6.4 | 0.00 | 0.00 | 0.00 | 6 | 1009.1 |
| 20260905111735 | 20 | 0 | 0.0 | 4.8 | 0.00 | 0.00 | 0.00 | 6 | 1009.0 |
| 20260905110735 | 21 | 211 | 1.6 | 4.8 | 0.00 | 0.00 | 0.00 | 5 | 1009.0 |
| 20260905105735 | 21 | 193 | 4.8 | 11.3 | 0.00 | 0.00 | 0.00 | 5 | 1008.8 |
| 20260905104739 | 21 | 193 | 1.6 | 12.9 | 0.00 | 0.00 | 0.00 | 5 | 1008.8 |
| 20260905104734 | 21 | 193 | 1.6 | 12.9 | 0.00 | 0.00 | 0.00 | 5 | 1008.8 |
| 20260905103734 | 21 | 194 | 1.6 | 6.4 | 0.00 | 0.00 | 0.00 | 5 | 1008.8 |
| 20260905102734 | 21 | 256 | 4.8 | 16.1 | 0.00 | 0.00 | 0.00 | 5 | 1008.7 |
| 20260905101734 | 21 | 150 | 4.8 | 8.0 | 0.00 | 0.00 | 0.00 | 5 | 1008.8 |
| 20260905100734 | 21 | 288 | 4.8 | 16.1 | 0.00 | 0.00 | 0.00 | 5 | 1008.6 |
| 20260905095734 | 22 | 90 | 3.2 | 9.7 | 0.00 | 0.00 | 0.00 | 5 | 1008.7 |
| 20260905094734 | 22 | 65 | 3.2 | 16.1 | 0.00 | 0.00 | 0.00 | 5 | 1008.6 |
| 20260905093733 | 22 | 85 | 3.2 | 8.0 | 0.00 | 0.00 | 0.00 | 5 | 1008.6 |
| 20260905092731 | 21 | 207 | 1.6 | 9.7 | 0.00 | 0.00 | 0.00 | 5 | 1008.7 |
| 20260905091731 | 21 | 139 | 3.2 | 6.4 | 0.00 | 0.00 | 0.00 | 5 | 1008.7 |
| 20260905090731 | 21 | 122 | 4.8 | 8.0 | 0.00 | 0.00 | 0.00 | 5 | 1008.7 |
| 20260905085731 | 21 | 111 | 12.9 | 14.5 | 0.00 | 0.00 | 0.00 | 5 | 1008.7 |
| 20260905084731 | 21 | 141 | 9.7 | 9.7 | 0.00 | 0.00 | 0.00 | 5 | 1008.7 |